User: anonymous   Login
Location: Fort Wayne
(41.1310°N, 85.1290°W)
Time: 15:11:10
(UTC-05:00)
Language:

COSMOS 2406 - Orbit

View from above orbital plane
View from above orbital plane
View from above satellite
View from above satellite

Ground track
Ground track

The orbit data is extracted from the following two-line orbital elements,

1 28352U 04021A   14328.15330459 -.00000036  00000-0  61146-5 0  4476
2 28352 071.0057 278.6894 0011907 069.5649 018.4057 14.11382500538773
Epoch (UTC): 24 November 2014 03:40:45
Eccentricity: 0.0011907
inclination: 71.0057°
perigee height: 846 km
apogee height: 863 km
right ascension of ascending node: 278.6894°
argument of perigee: 69.5649°
revolutions per day: 14.11382500
mean anomaly at epoch: 18.4057°
orbit number at epoch: 53877

The dashed part of the orbit path shows where the satellite is in the earth's shadow,  

DLR